Location: Montreal
(45.5000°N, 73.5833°W)
Time: 08:44:02
(UTC-04:00)

ISS - Pass Details

Date: 13 October 2017
Orbit: 401 x 408 km, 51.6° (Epoch: 20 October)

Event Time Altitude Azimuth Distance (km) Brightness Sun altitude
Rises 18:41:14 0° 299° (WNW) 2,325 1.1 -5.9°
Reaches altitude 10° 18:43:19 10° 300° (WNW) 1,465 -0.1 -6.3°
Maximum altitude 18:46:36 78° 26° (NNE) 419 -3.8 -6.9°
Drops below altitude 10° 18:49:53 10° 115° (ESE) 1,462 -1.5 -7.4°
Enters shadow 18:50:24 - 115° (ESE) 1,675 -1.2 -7.5°
